Weather History for Las Vegas, NM

Change the Weather History Date:

Friday, February 1, 2013

  Actual Average Record
Temperature  
Mean Temperature 41 °F -  
Max Temperature 59 °F 47 °F 71 °F (1963)
Min Temperature 23 °F 19 °F -21 °F (1951)
Degree Days  
Heating Degree Days 24    
Moisture  
Dew Point 1 °F    
Average Humidity 25    
Maximum Humidity 53    
Minimum Humidity 7    
Precipitation  
Precipitation 0.00 in - - ()
Sea Level Pressure  
Sea Level Pressure 30.04 in    
Wind  
Wind Speed 10 mph (NNW)    
Max Wind Speed 29 mph    
Max Gust Speed 37 mph    
Visibility 10 miles    
Events      
Averages and records for this station are not official NWS values.
T = Trace of Precipitation, MM = Missing Value Source: NWS Daily Summary

Daily Weather History Graph

Daily Weather History Graph

Search for Another Location

Airport:

Trip Planner

Search our weather history database for the weather conditions in past years. The results will help you decide how hot, cold, wet, or windy it might be!

Date:

Astronomy

Feb. 01, 2013 Rise Set
Actual Time 7:00 AM MST 5:28 PM MST
Civil Twilight 6:33 AM MST 5:55 PM MST
Nautical Twilight 6:03 AM MST 6:25 PM MST
Astronomical Twilight 5:32 AM MST 6:55 PM MST
Moon 11:23 PM MST (2/1) 9:48 AM MST (2/1)
Length of Visible Light 11h 21m
Length of Day
10h 28m
Waning Gibbous, 69% of the Moon is Illuminated
Feb 1
Waning Gibbous
Feb 3
Last Quarter
Feb 10
New
Feb 17
First Quarter
Feb 25
Full

Hourly Weather History & Observations

Time (MST) Temp. Windchill Dew Point Humidity Pressure Visibility Wind Dir Wind Speed Gust Speed Precip Events Conditions
12:53 AM 26.1 °F - 8.1 °F 47% 30.09 in 10.0 mi Calm Calm - N/A   Clear
1:53 AM 23.0 °F 12.4 °F 8.1 °F 53% 30.08 in 10.0 mi South 10.4 mph - N/A   Clear
2:53 AM 24.1 °F 13.1 °F 7.0 °F 48% 30.07 in 10.0 mi South 11.5 mph - N/A   Clear
3:53 AM 24.1 °F 13.1 °F 6.1 °F 46% 30.06 in 10.0 mi South 11.5 mph - N/A   Clear
5:53 AM 28.0 °F 20.0 °F 1.0 °F 31% 30.07 in 10.0 mi South 8.1 mph - N/A   Clear
6:53 AM 27.0 °F 18.7 °F 1.9 °F 34% 30.08 in 10.0 mi South 8.1 mph - N/A   Clear
7:53 AM 30.0 °F 25.2 °F 6.1 °F 36% 30.10 in 10.0 mi ENE 4.6 mph - N/A   Clear
8:53 AM 43.0 °F 38.8 °F 5.0 °F 21% 30.04 in 10.0 mi SSE 6.9 mph - N/A   Clear
9:53 AM 50.0 °F - 1.9 °F 14% 30.02 in 10.0 mi Variable 3.5 mph - N/A   Clear
10:53 AM 55.0 °F - -4.0 °F 9% 29.99 in 10.0 mi NW 24.2 mph 31.1 mph N/A   Clear
11:07 AM 55.4 °F - -4.0 °F 9% 30.11 in 10.0 mi NW 25.3 mph 33.4 mph N/A   Clear
11:53 AM 55.9 °F - -2.9 °F 9% 29.97 in 10.0 mi WNW 23.0 mph 32.2 mph N/A   Clear
12:53 PM 57.9 °F - -6.0 °F 7% 29.93 in 10.0 mi NW 24.2 mph 28.8 mph N/A   Clear
1:53 PM 59.0 °F - -5.1 °F 7% 29.92 in 10.0 mi NW 27.6 mph 36.8 mph N/A   Clear
2:53 PM 57.0 °F - -4.0 °F 8% 29.93 in 10.0 mi NW 28.8 mph 34.5 mph N/A   Clear
3:53 PM 55.9 °F - -8.0 °F 7% 29.95 in 10.0 mi WNW 21.9 mph 29.9 mph N/A   Clear
4:53 PM 51.1 °F - -2.0 °F 11% 29.99 in 10.0 mi NNE 5.8 mph - N/A   Clear
5:53 PM 43.0 °F 37.7 °F -2.0 °F 15% 30.03 in 10.0 mi NNE 9.2 mph - N/A   Clear
6:53 PM 37.0 °F 31.6 °F 1.0 °F 22% 30.10 in 10.0 mi East 6.9 mph - N/A   Clear
7:53 PM 37.0 °F 31.0 °F 1.9 °F 23% 30.11 in 10.0 mi NNE 8.1 mph - N/A   Clear
8:53 PM 35.1 °F 29.3 °F 5.0 °F 28% 30.08 in 10.0 mi North 6.9 mph - N/A   Clear
9:53 PM 35.1 °F 29.3 °F 7.0 °F 31% 30.06 in 10.0 mi North 6.9 mph - N/A   Clear
10:53 PM 32.0 °F 25.6 °F 6.1 °F 34% 30.08 in 10.0 mi WNW 6.9 mph - N/A   Clear
11:53 PM 27.0 °F 21.6 °F 5.0 °F 39% 30.12 in 10.0 mi NE 4.6 mph - N/A   Clear